Location: ?????????
(53.2086°N, 54.0693°E)
Time: 13:59:50
(UTC+00:00)

NOSS 3-4 (A) - Pass Details

Date: 08 December 2019
Orbit: 904 x 1309 km, 63.4° (Epoch: 19 January)

Event Time Altitude Azimuth Distance (km) Brightness Sun altitude
Rises 14:04:57 0° 234° (SW) 3,536 7.8 -16.5°
Reaches altitude 10° 14:07:24 10° 236° (WSW) 2,617 6.9 -16.8°
Maximum altitude 14:13:28 73° 322° (NW) 1,009 3.6 -17.7°
Enters shadow 14:17:42 23° 43° (NE) 1,990 4.6 -18.3°
